Location: Haulchin
(50.3172°N, 3.4360°E)
Time: 13:14:38
(UTC+00:00)

Cosmos 1862 Rocket - Pass Details

Date: 23 May 2024
Orbit: 601 x 629 km, 82.5° (Epoch: 16 June)

Event Time Altitude Azimuth Distance (km) Brightness Sun altitude
Exits shadow 01:04:16 31° 221° (SW) 1,059 4.2 -16.8°
Maximum altitude 01:06:04 55° 283° (WNW) 730 3.8 -16.7°
Drops below altitude 10° 01:10:21 10° 3° (N) 1,968 7.3 -16.5°
Sets 01:12:37 0° 7° (N) 2,881 8.5 -16.3°
